Погода в Шаффхаузене

Швейцария     47°42′10″N   8°38′16″E
темп.,
°C
ветер,
м/с
пор.,
м/с
влажн.,
%
обл.,
%
осадки,
мм/ч
давл.,
гПа
погр.,
м
7 марта, вс
вс701:00−2ссв22710 0.0 102835
04:00−2св11740 0.0 102721
07:00−2ю117435 0.0 102625
10:00+5юз125849 0.0 1024317
13:00+10юз345528 0.0 1022760
16:00+10юз246186 0.2 1019972
19:00+4ссз128961 0.8 102023
22:00+3с118797 0.0 102122
8 марта, пн
пн801:00+2ссв128598 0.0 102132
04:00+2ссв128899 0.0 102041
07:00+2ссв128897 0.1 102169
10:00+2св129298 0.2 1021235
13:00+6вюв127199 0.2 1020603
16:00+7юв016381 0.1 1019936
19:00+4ссз007183 0.1 102022
22:000ссв227657 0.0 102134
9 марта, вт
вт901:00−1с227545 0.0 102134
04:000ссв1173100 0.0 102022
07:000в0073100 0.0 102121
10:00+5ю115666 0.0 1021347
13:00+10юз124733 0.0 10201206
16:00+9з125023 0.0 10191423
19:00+4ссз127152 0.0 102222
22:00+1ссв128154 0.0 102422
10 марта, ср
ср1001:000ссв128627 0.0 102321
04:00−1с01880 0.0 102321
07:00−2ююз01921 0.0 102321
10:00+4ююз2266100 0.0 1023321
13:00+9юз344996 0.0 1021708
16:00+10юз364689 0.0 10191106
19:00+4юз227095 0.0 101922
22:00+3юз1278100 0.0 102024
11 марта, чт
чт1101:00+4юз1379100 0.0 1019114
04:00+5юз31471100 0.0 1017797
07:00+8зюз61857100 0.0 10161238
10:00+10зюз61564100 0.0 10161125
13:00+12зюз71763100 0.0 10141472
16:00+12зюз61665100 0.1 10121650
19:00+10зюз51771100 0.2 10131578
22:00+8сз41089100 1.7 1015885